• In Netherlands
  • List of Countries
  • For 7 days
  • Water Temperature
  • Satellite Maps
  • Weather Map
  • Weather Widgets
  • user-avatar
    Login

    Hourly Weather Megri

    Today, 21 February, Tuesday

    Time Temperature Precipitation Wind Pressure Humidity
    00:00 -12°C° 0 mm 1 mps 616 mmHg 64%
    01:00 -13°C° 0 mm 1 mps 616 mmHg 62%
    02:00 -13°C° 0 mm 1 mps 616 mmHg 61%
    03:00 -13°C° 0 mm 1 mps 616 mmHg 60%
    04:00 -13°C° 0 mm 1 mps 615 mmHg 59%
    05:00 -13°C° 0 mm 1 mps 615 mmHg 57%
    06:00 -13°C° 0 mm 1 mps 615 mmHg 56%
    07:00 -10°C° 0 mm 1 mps 617 mmHg 59%
    08:00 -6°C° 0 mm 1 mps 618 mmHg 61%
    09:00 -2°C° 0 mm 1 mps 620 mmHg 64%
    10:00 -3°C° 0 mm 2 mps 620 mmHg 67%
    11:00 -2°C° 0 mm 2 mps 620 mmHg 69%
    12:00 +1°C° 0 mm 2 mps 620 mmHg 72%
    13:00 +1°C° 0 mm 2 mps 620 mmHg 73%
    14:00 +1°C° 0 mm 2 mps 619 mmHg 75%
    15:00 +1°C° 0 mm 2 mps 619 mmHg 76%
    16:00 -4°C° 0 mm 2 mps 618 mmHg 79%
    17:00 -7°C° 0 mm 2 mps 616 mmHg 81%
    18:00 -9°C° 0 mm 1 mps 615 mmHg 83%
    19:00 -10°C° 0 mm 2 mps 615 mmHg 81%
    20:00 -10°C° 0 mm 2 mps 615 mmHg 79%
    21:00 -10°C° 0 mm 2 mps 615 mmHg 76%
    22:00 -10°C° 0 mm 2 mps 615 mmHg 75%
    23:00 -10°C° 0 mm 2 mps 616 mmHg 73%

    Tomorrow, 22 February, Wednesday

    Time Temperature Precipitation Wind Pressure Humidity
    00:00 -10°C° 0 mm 2 mps 616 mmHg 72%
    01:00 -10°C° 0 mm 2 mps 616 mmHg 72%
    02:00 -10°C° 0 mm 2 mps 616 mmHg 73%
    03:00 -10°C° 0 mm 2 mps 616 mmHg 73%
    04:00 -10°C° 0 mm 2 mps 616 mmHg 76%
    05:00 -10°C° 0 mm 2 mps 616 mmHg 78%
    06:00 -10°C° 0 mm 2 mps 616 mmHg 81%
    07:00 -8°C° 0 mm 2 mps 617 mmHg 80%
    08:00 -6°C° 0 mm 2 mps 618 mmHg 80%
    09:00 -4°C° 0 mm 2 mps 619 mmHg 79%
    10:00 -3°C° 0 mm 2 mps 619 mmHg 78%
    11:00 -2°C° 0 mm 2 mps 619 mmHg 76%
    12:00 -1°C° 0 mm 3 mps 620 mmHg 75%
    13:00 -1°C° 0 mm 2 mps 619 mmHg 74%
    14:00 -1°C° 0 mm 2 mps 619 mmHg 73%
    15:00 +1°C° 0 mm 2 mps 619 mmHg 73%
    16:00 -3°C° 0 mm 2 mps 618 mmHg 75%
    17:00 -6°C° 0 mm 2 mps 617 mmHg 77%
    18:00 -8°C° 0 mm 2 mps 616 mmHg 79%
    19:00 -8°C° 0 mm 2 mps 616 mmHg 76%
    20:00 -9°C° 0 mm 2 mps 617 mmHg 73%
    21:00 -9°C° 0 mm 2 mps 617 mmHg 70%
    22:00 -8°C° 0 mm 2 mps 617 mmHg 70%
    23:00 -8°C° 0 mm 2 mps 617 mmHg 69%

    Day after tomorrow, 23 February, Thursday

    Time Temperature Precipitation Wind Pressure Humidity
    00:00 -8°C° 0 mm 2 mps 618 mmHg 69%
    01:00 -8°C° 0 mm 2 mps 617 mmHg 72%
    02:00 -8°C° 0 mm 2 mps 617 mmHg 75%
    03:00 -8°C° 0 mm 2 mps 617 mmHg 78%
    04:00 -8°C° 0 mm 2 mps 618 mmHg 80%
    05:00 -8°C° 0 mm 2 mps 618 mmHg 82%
    06:00 -7°C° 0 mm 2 mps 618 mmHg 84%
    07:00 -6°C° 0.1 mm 2 mps 619 mmHg 82%
    08:00 -4°C° 0.1 mm 2 mps 620 mmHg 80%
    09:00 -3°C° 0.1 mm 2 mps 621 mmHg 79%
    10:00 -2°C° 0 mm 2 mps 621 mmHg 78%
    11:00 -1°C° 0 mm 2 mps 621 mmHg 77%
    12:00 0°C° 0 mm 3 mps 621 mmHg 76%
    13:00 0°C° 0 mm 3 mps 621 mmHg 75%
    14:00 0°C° 0 mm 3 mps 621 mmHg 74%
    15:00 0°C° 0 mm 3 mps 621 mmHg 72%
    16:00 -3°C° 0 mm 2 mps 620 mmHg 76%
    17:00 -6°C° 0 mm 2 mps 619 mmHg 79%
    18:00 -8°C° 0 mm 2 mps 618 mmHg 82%
    19:00 -8°C° 0 mm 2 mps 619 mmHg 81%
    20:00 -9°C° 0 mm 2 mps 619 mmHg 79%
    21:00 -9°C° 0 mm 2 mps 619 mmHg 78%
    22:00 -9°C° 0 mm 2 mps 619 mmHg 78%
    23:00 -9°C° 0 mm 2 mps 619 mmHg 77%

    24 February, Friday

    Time Temperature Precipitation Wind Pressure Humidity
    00:00 -9°C° 0 mm 2 mps 619 mmHg 77%
    01:00 -9°C° 0 mm 2 mps 619 mmHg 77%
    02:00 -9°C° 0 mm 2 mps 619 mmHg 77%
    03:00 -9°C° 0 mm 2 mps 619 mmHg 77%
    04:00 -10°C° 0 mm 2 mps 619 mmHg 78%
    05:00 -9°C° 0 mm 1 mps 619 mmHg 78%
    06:00 -9°C° 0 mm 1 mps 619 mmHg 79%
    07:00 -7°C° 0 mm 1 mps 620 mmHg 75%
    08:00 -3°C° 0 mm 1 mps 622 mmHg 71%
    09:00 0°C° 0 mm 1 mps 623 mmHg 67%
    10:00 +1°C° 0 mm 1 mps 623 mmHg 69%
    11:00 +2°C° 0 mm 1 mps 624 mmHg 70%
    12:00 +3°C° 0 mm 1 mps 624 mmHg 72%
    13:00 +3°C° 0 mm 1 mps 623 mmHg 72%
    14:00 +3°C° 0 mm 1 mps 623 mmHg 72%
    15:00 +4°C° 0 mm 1 mps 623 mmHg 73%
    16:00 0°C° 0 mm 1 mps 622 mmHg 75%
    17:00 -3°C° 0 mm 1 mps 620 mmHg 78%
    18:00 -7°C° 0 mm 1 mps 619 mmHg 80%
    19:00 -7°C° 0 mm 1 mps 619 mmHg 78%
    20:00 -7°C° 0 mm 1 mps 619 mmHg 76%
    21:00 -7°C° 0 mm 1 mps 620 mmHg 73%
    22:00 -7°C° 0 mm 1 mps 620 mmHg 71%
    23:00 -8°C° 0 mm 2 mps 620 mmHg 70%

    25 February, Saturday

    Time Temperature Precipitation Wind Pressure Humidity
    00:00 -8°C° 0 mm 2 mps 620 mmHg 68%
    01:00 -8°C° 0 mm 2 mps 619 mmHg 67%
    02:00 -8°C° 0 mm 2 mps 619 mmHg 66%
    03:00 -8°C° 0 mm 2 mps 619 mmHg 65%
    04:00 -8°C° 0 mm 2 mps 619 mmHg 65%
    05:00 -8°C° 0 mm 2 mps 620 mmHg 66%
    06:00 -8°C° 0 mm 2 mps 620 mmHg 66%
    07:00 -5°C° 0 mm 2 mps 621 mmHg 66%
    08:00 -3°C° 0 mm 2 mps 622 mmHg 66%
    09:00 -1°C° 0 mm 2 mps 623 mmHg 66%
    10:00 +1°C° 0 mm 2 mps 622 mmHg 69%
    11:00 +2°C° 0 mm 2 mps 622 mmHg 71%
    12:00 +3°C° 0 mm 2 mps 622 mmHg 74%
    13:00 +3°C° 0 mm 2 mps 622 mmHg 74%
    14:00 +3°C° 0 mm 2 mps 621 mmHg 74%
    15:00 +3°C° 0 mm 2 mps 621 mmHg 74%
    16:00 +1°C° 0 mm 2 mps 620 mmHg 75%
    17:00 -2°C° 0 mm 2 mps 619 mmHg 75%
    18:00 -5°C° 0 mm 2 mps 618 mmHg 76%
    19:00 -5°C° 0 mm 2 mps 618 mmHg 74%
    20:00 -5°C° 0 mm 2 mps 618 mmHg 71%
    21:00 -5°C° 0 mm 2 mps 618 mmHg 68%
    22:00 -5°C° 0 mm 2 mps 618 mmHg 69%
    23:00 -5°C° 0 mm 2 mps 618 mmHg 69%

    26 February, Sunday

    Time Temperature Precipitation Wind Pressure Humidity
    00:00 -6°C° 0 mm 3 mps 618 mmHg 69%
    01:00 -6°C° 0 mm 3 mps 617 mmHg 71%
    02:00 -6°C° 0 mm 3 mps 617 mmHg 73%
    03:00 -6°C° 0 mm 3 mps 617 mmHg 74%
    04:00 -6°C° 0 mm 3 mps 617 mmHg 76%
    05:00 -6°C° 0 mm 3 mps 617 mmHg 77%
    06:00 -6°C° 0 mm 3 mps 617 mmHg 79%
    07:00 -4°C° 0 mm 3 mps 618 mmHg 78%
    08:00 -2°C° 0 mm 3 mps 618 mmHg 77%
    09:00 -1°C° 0 mm 3 mps 619 mmHg 76%
    10:00 -1°C° 0 mm 4 mps 618 mmHg 76%
    11:00 0°C° 0 mm 4 mps 618 mmHg 76%
    12:00 +1°C° 0 mm 4 mps 618 mmHg 76%
    13:00 +1°C° 0 mm 4 mps 618 mmHg 76%
    14:00 +1°C° 0 mm 4 mps 618 mmHg 76%
    15:00 +1°C° 0 mm 4 mps 617 mmHg 75%
    16:00 +1°C° 0 mm 3 mps 617 mmHg 77%
    17:00 0°C° 0 mm 3 mps 617 mmHg 79%
    18:00 -1°C° 0 mm 2 mps 617 mmHg 81%
    19:00 -1°C° 0 mm 2 mps 618 mmHg 82%
    20:00 -2°C° 0 mm 2 mps 618 mmHg 83%
    21:00 -2°C° 0 mm 2 mps 618 mmHg 83%
    22:00 -2°C° 0 mm 2 mps 619 mmHg 84%
    23:00 -2°C° 0 mm 2 mps 619 mmHg 85%
    Show more